Snowfall_Accumulation
0.0 0.0 0.0 0.0 0.0 0.0 0.0 0.0 0.0 0.0 0.0 0.0 0.0 0.0 0.0 0.0 0.0 0.0 0.0 0.0 0.0 0.0
0.0 0.0 0.0 0.0 0.0 0.0 0.0 0.0 0.0 0.0 0.0 0.0 0.0 0.0 0.0 0.0 0.0 0.0 0.0 0.0 0.0 0.0
0.0 0.0 0.0 0.0 0.0 0.0 0.0 0.0 0.0 0.0 0.0 0.0 0.0 0.0 0.0 0.0 0.0 0.0 0.0 0.0 0.0 0.0
0.0 0.0 0.0 0.0 0.0 0.0 0.0 0.0 0.0 0.0 0.0 0.0 0.0 0.0 0.0 0.0 0.0 0.0 0.0 0.0 0.0 0.0
0.0 0.0 0.0 0.0 0.0 0.0 0.0 0.0 0.0 0.0 0.0 0.0 0.0 0.0 0.0 0.0 0.0 0.0 0.0 0.0 0.0 0.0
0.0 0.0 0.0 0.0 0.0 0.0 0.0 0.0 0.0 0.0 0.0 0.0 0.0 0.0 0.0 0.0 0.0 0.0 0.0 0.0 0.0 0.0
0.0 0.0 0.0 0.0 0.0 0.0 0.0 0.0 0.0 0.0 0.0 0.0 0.0 0.0 0.0 0.0 0.0 0.0 0.0 0.0 0.0 0.0
0.0 0.0 0.0 0.0 0.0 0.0 0.0 0.0 0.0 0.0 0.0 0.0 0.0 0.0 0.0 0.0 0.0 0.0 0.0 0.0 0.0 0.0
0.0 0.0 0.0 0.0 0.0 0.0 0.0 0.0 0.0 0.0 0.0 0.0 0.0 0.0 0.0 0.0 0.0 0.0 0.0 0.0 0.0 0.0
1.4 0.0 0.9 0.9 0.0 0.1 0.2 0.0 0.0 0.1 0.1 0.0 0.3 0.0 0.0 0.0 0.0 0.0 0.0 0.0 0.0 0.0
1.1 1.9 2.6 2.6 1.5 1.3 0.6 0.6 0.8 1.3 0.4 0.2 1.1 0.6 0.7 0.8 0.8 0.7 0.0 0.9 1.0 1.0
1.4 1.4 1.1 1.2 1.0 0.9 1.1 0.8 1.8 0.9 0.8 1.0 1.5 2.1 2.4 2.8 1.2 0.8 0.9 1.4 0.9 0.9
0.7 0.8 0.8 1.5 1.7 2.1 2.5 2.9 3.3 6.0 2.9 4.7 1.6 2.7 4.6 2.3 3.1 1.3 5.7 2.7 2.8 3.9
0.0 0.0 0.3 0.4 0.9 1.7 2.8 3.9 4.5 5.5 7.0 7.2 5.3 7.7 9.3 4.7 8.2 7.3 3.9 4.7 2.8 4.3